| time (UTC) | temp F | wind direction | speed knots | gust knots | rain 1hr in | rain 24hr in | rain mn in | humidity % | barometer mb |
| 20260508011324 | 59 | 360 | 5.2 | 7.8 | 0.00 | 0.00 | 0.00 | 82 | 1012.7 |
| 20260508010338 | 59 | 360 | 3.5 | 5.2 | 0.00 | 0.00 | 0.00 | 82 | 1013.0 |
| 20260508005327 | 59 | 360 | 2.6 | 5.2 | 0.00 | 0.00 | 0.00 | 82 | 1013.0 |
| 20260508004343 | 59 | 360 | 3.5 | 4.3 | 0.00 | 0.00 | 0.00 | 82 | 1013.0 |
| 20260508003329 | 59 | 360 | 2.6 | 5.2 | 0.00 | 0.00 | 0.00 | 81 | 1013.2 |
| 20260508002342 | 59 | 360 | 1.7 | 5.2 | 0.00 | 0.00 | 0.00 | 81 | 1013.3 |
| 20260508001329 | 59 | 360 | 3.5 | 7.0 | 0.00 | 0.00 | 0.00 | 81 | 1013.4 |
| 20260508000334 | 59 | 360 | 3.5 | 5.2 | 0.00 | 0.00 | 0.00 | 80 | 1013.5 |
| 20260507235333 | 60 | 360 | 3.5 | 7.8 | 0.00 | 0.00 | 0.00 | 81 | 1013.6 |
| 20260507234331 | 60 | 360 | 4.3 | 7.0 | 0.00 | 0.00 | 0.00 | 80 | 1013.6 |
| 20260507233327 | 60 | 360 | 4.3 | 7.0 | 0.00 | 0.00 | 0.00 | 80 | 1013.8 |
| 20260507232331 | 60 | 360 | 2.6 | 3.5 | 0.00 | 0.00 | 0.00 | 80 | 1013.9 |
| 20260507231341 | 60 | 360 | 2.6 | 3.5 | 0.00 | 0.00 | 0.00 | 80 | 1014.1 |
| 20260507230330 | 60 | 360 | 2.6 | 3.5 | 0.00 | 0.00 | 0.00 | 80 | 1014.2 |
| 20260507225333 | 60 | 360 | 1.7 | 3.5 | 0.00 | 0.00 | 0.00 | 80 | 1014.2 |
| 20260507224332 | 60 | 360 | 1.7 | 4.3 | 0.00 | 0.00 | 0.00 | 79 | 1014.2 |
| 20260507223337 | 61 | 360 | 3.5 | 7.0 | 0.00 | 0.00 | 0.00 | 79 | 1014.2 |
| 20260507222335 | 61 | 360 | 1.7 | 5.2 | 0.00 | 0.00 | 0.00 | 79 | 1014.2 |
| 20260507221336 | 61 | 360 | 2.6 | 4.3 | 0.00 | 0.00 | 0.00 | 80 | 1014.2 |
| 20260507220323 | 61 | 360 | 0.9 | 3.5 | 0.00 | 0.00 | 0.00 | 80 | 1014.2 |
| 20260507215334 | 61 | 360 | 0.9 | 1.7 | 0.00 | 0.00 | 0.00 | 80 | 1014.2 |
| 20260507214322 | 61 | 360 | 1.7 | 3.5 | 0.00 | 0.00 | 0.00 | 80 | 1014.1 |
| 20260507213337 | 61 | 360 | 1.7 | 3.5 | 0.00 | 0.00 | 0.00 | 80 | 1013.9 |
| 20260507212326 | 62 | 360 | 2.6 | 2.6 | 0.00 | 0.00 | 0.00 | 80 | 1013.9 |
| 20260507211337 | 62 | 360 | 0.9 | 2.6 | 0.00 | 0.00 | 0.00 | 80 | 1013.9 |
| 20260507210325 | 61 | 360 | 0.9 | 3.5 | 0.00 | 0.00 | 0.00 | 81 | 1013.9 |
| 20260507205326 | 61 | 360 | 2.6 | 4.3 | 0.00 | 0.00 | 0.00 | 81 | 1013.8 |
| 20260507204334 | 61 | 360 | 1.7 | 4.3 | 0.00 | 0.00 | 0.00 | 80 | 1013.8 |
| 20260507203331 | 61 | 360 | 2.6 | 5.2 | 0.00 | 0.00 | 0.00 | 81 | 1013.8 |
| 20260507202336 | 62 | 360 | 2.6 | 4.3 | 0.00 | 0.00 | 0.00 | 81 | 1013.8 |
| 20260507201323 | 62 | 360 | 2.6 | 4.3 | 0.00 | 0.00 | 0.00 | 81 | 1013.9 |
| 20260507200322 | 62 | 360 | 1.7 | 3.5 | 0.00 | 0.00 | 0.00 | 81 | 1013.8 |
| 20260507195332 | 62 | 360 | 2.6 | 5.2 | 0.00 | 0.00 | 0.00 | 81 | 1013.5 |
| 20260507194348 | 63 | 360 | 2.6 | 5.2 | 0.00 | 0.00 | 0.00 | 81 | 1013.5 |
| 20260507193327 | 63 | 360 | 1.7 | 3.5 | 0.00 | 0.00 | 0.00 | 81 | 1013.4 |
| 20260507192344 | 63 | 360 | 1.7 | 4.3 | 0.00 | 0.00 | 0.00 | 81 | 1013.4 |
| 20260507191326 | 63 | 360 | 2.6 | 4.3 | 0.00 | 0.00 | 0.00 | 80 | 1013.2 |
| 20260507190332 | 64 | 360 | 2.6 | 4.3 | 0.00 | 0.00 | 0.00 | 79 | 1013.2 |
| 20260507185324 | 64 | 360 | 4.3 | 7.0 | 0.00 | 0.00 | 0.00 | 79 | 1013.2 |
| 20260507184324 | 64 | 360 | 2.6 | 5.2 | 0.00 | 0.00 | 0.00 | 79 | 1013.2 |
| 20260507183335 | 64 | 360 | 2.6 | 7.0 | 0.00 | 0.00 | 0.00 | 79 | 1013.1 |
| 20260507182350 | 64 | 360 | 3.5 | 4.3 | 0.00 | 0.00 | 0.00 | 79 | 1013.1 |
| 20260507181336 | 64 | 360 | 0.9 | 3.5 | 0.00 | 0.00 | 0.00 | 79 | 1013.0 |
| 20260507180323 | 64 | 360 | 0.9 | 3.5 | 0.00 | 0.00 | 0.00 | 78 | 1013.1 |
| 20260507175335 | 65 | 360 | 2.6 | 3.5 | 0.00 | 0.00 | 0.00 | 78 | 1013.0 |
| 20260507174322 | 65 | 360 | 1.7 | 5.2 | 0.00 | 0.00 | 0.00 | 78 | 1013.0 |
| 20260507173333 | 65 | 360 | 2.6 | 5.2 | 0.00 | 0.00 | 0.00 | 77 | 1012.9 |
| 20260507172341 | 65 | 360 | 2.6 | 4.3 | 0.00 | 0.00 | 0.00 | 76 | 1013.0 |
| 20260507171337 | 66 | 360 | 1.7 | 4.3 | 0.00 | 0.00 | 0.00 | 76 | 1013.1 |
| 20260507170323 | 66 | 360 | 1.7 | 5.2 | 0.00 | 0.00 | 0.00 | 75 | 1013.0 |
| 20260507165337 | 66 | 360 | 0.9 | 2.6 | 0.00 | 0.00 | 0.00 | 75 | 1012.9 |
| 20260507164322 | 66 | 360 | 0.9 | 2.6 | 0.00 | 0.00 | 0.00 | 76 | 1013.0 |
| 20260507163325 | 66 | 360 | 1.7 | 4.3 | 0.00 | 0.00 | 0.00 | 76 | 1012.9 |
| 20260507162324 | 66 | 360 | 2.6 | 5.2 | 0.00 | 0.00 | 0.00 | 76 | 1012.9 |
| 20260507161328 | 66 | 360 | 2.6 | 4.3 | 0.00 | 0.00 | 0.00 | 75 | 1012.9 |
| 20260507160339 | 66 | 360 | 2.6 | 5.2 | 0.00 | 0.00 | 0.00 | 75 | 1012.8 |
| 20260507155350 | 67 | 360 | 2.6 | 3.5 | 0.00 | 0.00 | 0.00 | 75 | 1012.8 |
| 20260507154339 | 67 | 360 | 2.6 | 7.0 | 0.00 | 0.00 | 0.00 | 74 | 1012.8 |
| 20260507153323 | 67 | 360 | 3.5 | 5.2 | 0.00 | 0.00 | 0.00 | 74 | 1012.9 |
| 20260507152340 | 66 | 360 | 2.6 | 5.2 | 0.00 | 0.00 | 0.00 | 75 | 1012.8 |
| 20260507151341 | 67 | 360 | 3.5 | 4.3 | 0.00 | 0.00 | 0.00 | 74 | 1012.9 |
| 20260507150337 | 66 | 360 | 2.6 | 7.8 | 0.00 | 0.00 | 0.00 | 76 | 1013.0 |
| 20260507145339 | 66 | 360 | 3.5 | 7.0 | 0.00 | 0.00 | 0.00 | 76 | 1013.0 |
| 20260507144336 | 67 | 360 | 2.6 | 7.0 | 0.00 | 0.00 | 0.00 | 75 | 1012.9 |
| 20260507143338 | 66 | 360 | 2.6 | 7.0 | 0.00 | 0.00 | 0.00 | 74 | 1013.0 |
| 20260507142333 | 67 | 360 | 2.6 | 7.0 | 0.00 | 0.00 | 0.00 | 73 | 1013.0 |
| 20260507141334 | 67 | 360 | 3.5 | 7.0 | 0.00 | 0.00 | 0.00 | 73 | 1012.9 |
| 20260507140347 | 66 | 360 | 2.6 | 7.8 | 0.00 | 0.00 | 0.00 | 74 | 1013.1 |
| 20260507135333 | 66 | 360 | 4.3 | 7.8 | 0.00 | 0.00 | 0.00 | 75 | 1013.2 |
| 20260507134349 | 66 | 360 | 4.3 | 8.7 | 0.00 | 0.00 | 0.00 | 76 | 1013.2 |
| 20260507133329 | 66 | 360 | 4.3 | 11.3 | 0.00 | 0.00 | 0.00 | 77 | 1013.4 |
| 20260507132344 | 65 | 360 | 7.0 | 10.4 | 0.00 | 0.00 | 0.00 | 77 | 1013.4 |
| 20260507131329 | 65 | 360 | 5.2 | 11.3 | 0.00 | 0.00 | 0.00 | 76 | 1013.4 |
| 20260507130332 | 65 | 360 | 6.1 | 13.0 | 0.00 | 0.00 | 0.00 | 76 | 1013.3 |
| 20260507125339 | 66 | 360 | 7.8 | 11.3 | 0.00 | 0.00 | 0.00 | 75 | 1013.1 |
| 20260507124352 | 66 | 360 | 6.1 | 12.2 | 0.00 | 0.00 | 0.00 | 75 | 1013.0 |
| 20260507123325 | 66 | 360 | 7.8 | 14.8 | 0.00 | 0.00 | 0.00 | 74 | 1013.0 |
| 20260507122327 | 67 | 360 | 5.2 | 13.0 | 0.00 | 0.00 | 0.00 | 74 | 1013.0 |
| 20260507121339 | 67 | 360 | 6.1 | 12.2 | 0.00 | 0.00 | 0.00 | 73 | 1012.9 |
| 20260507120322 | 67 | 360 | 5.2 | 12.2 | 0.00 | 0.00 | 0.00 | 73 | 1012.9 |
| 20260507115334 | 66 | 360 | 7.8 | 14.8 | 0.00 | 0.00 | 0.00 | 74 | 1012.8 |
| 20260507114345 | 66 | 360 | 6.1 | 12.2 | 0.00 | 0.00 | 0.00 | 74 | 1013.0 |
| 20260507113330 | 66 | 360 | 6.1 | 13.0 | 0.00 | 0.00 | 0.00 | 74 | 1013.0 |
| 20260507112337 | 66 | 360 | 7.0 | 11.3 | 0.00 | 0.00 | 0.00 | 74 | 1013.1 |
| 20260507111322 | 66 | 360 | 7.0 | 12.2 | 0.00 | 0.00 | 0.00 | 73 | 1013.2 |
| 20260507110321 | 66 | 360 | 4.3 | 11.3 | 0.00 | 0.00 | 0.00 | 76 | 1013.2 |
| 20260507105336 | 66 | 360 | 10.4 | 15.6 | 0.00 | 0.00 | 0.00 | 75 | 1013.0 |
| 20260507104347 | 66 | 360 | 6.1 | 14.8 | 0.00 | 0.00 | 0.00 | 76 | 1013.1 |
| 20260507103332 | 65 | 360 | 7.0 | 15.6 | 0.00 | 0.00 | 0.00 | 78 | 1013.1 |
| 20260507102331 | 65 | 360 | 10.4 | 15.6 | 0.00 | 0.00 | 0.00 | 78 | 1013.1 |
| 20260507101324 | 65 | 360 | 10.4 | 16.5 | 0.00 | 0.00 | 0.00 | 78 | 1013.2 |
| 20260507100341 | 65 | 360 | 9.6 | 17.4 | 0.00 | 0.00 | 0.00 | 78 | 1013.2 |
| 20260507095337 | 65 | 360 | 12.2 | 17.4 | 0.00 | 0.00 | 0.00 | 78 | 1013.0 |
| 20260507094336 | 65 | 360 | 13.0 | 19.1 | 0.00 | 0.00 | 0.00 | 78 | 1012.9 |
| 20260507093322 | 65 | 360 | 10.4 | 16.5 | 0.00 | 0.00 | 0.00 | 78 | 1012.9 |
| 20260507092332 | 66 | 360 | 9.6 | 19.1 | 0.00 | 0.00 | 0.00 | 77 | 1012.9 |
| 20260507091346 | 67 | 360 | 7.8 | 13.0 | 0.00 | 0.00 | 0.00 | 75 | 1012.7 |
| 20260507090323 | 66 | 360 | 7.8 | 14.8 | 0.00 | 0.00 | 0.00 | 74 | 1012.7 |
| 20260507085325 | 66 | 360 | 7.8 | 12.2 | 0.00 | 0.00 | 0.00 | 74 | 1012.6 |
| 20260507084336 | 67 | 360 | 5.2 | 12.2 | 0.00 | 0.00 | 0.00 | 73 | 1012.6 |
| 20260507083349 | 67 | 360 | 5.2 | 10.4 | 0.00 | 0.00 | 0.00 | 71 | 1012.4 |
| 20260507082335 | 66 | 360 | 4.3 | 12.2 | 0.00 | 0.00 | 0.00 | 71 | 1012.3 |
| 20260507081345 | 66 | 360 | 9.6 | 11.3 | 0.00 | 0.00 | 0.00 | 69 | 1012.4 |
| 20260507080325 | 66 | 360 | 4.3 | 10.4 | 0.00 | 0.00 | 0.00 | 68 | 1012.4 |
| 20260507075340 | 66 | 360 | 6.1 | 12.2 | 0.00 | 0.00 | 0.00 | 67 | 1012.4 |
| 20260507074338 | 66 | 360 | 7.0 | 13.9 | 0.00 | 0.00 | 0.00 | 66 | 1012.3 |
| 20260507073334 | 67 | 360 | 7.0 | 13.0 | 0.00 | 0.00 | 0.00 | 65 | 1012.3 |
| 20260507072332 | 67 | 340 | 0.9 | 2.6 | 0.00 | 0.00 | 0.00 | 66 | 1012.3 |
| 20260507071333 | 66 | 340 | 0.0 | 1.7 | 0.00 | 0.00 | 0.00 | 69 | 1012.3 |
| 20260507070335 | 65 | 360 | 0.0 | 3.5 | 0.00 | 0.00 | 0.00 | 70 | 1012.3 |
| 20260507065343 | 65 | 360 | 2.6 | 5.2 | 0.00 | 0.00 | 0.00 | 71 | 1012.2 |
| 20260507064342 | 65 | 360 | 0.9 | 3.5 | 0.00 | 0.00 | 0.00 | 73 | 1012.1 |
| 20260507063324 | 65 | 360 | 2.6 | 3.5 | 0.00 | 0.00 | 0.00 | 73 | 1012.0 |
| 20260507062330 | 64 | 360 | 1.7 | 4.3 | 0.00 | 0.00 | 0.00 | 73 | 1012.0 |
| 20260507061326 | 64 | 360 | 0.0 | 3.5 | 0.00 | 0.00 | 0.00 | 73 | 1011.9 |
| 20260507060334 | 63 | 360 | 1.7 | 3.5 | 0.00 | 0.00 | 0.00 | 73 | 1011.9 |
| 20260507055322 | 63 | 360 | 0.9 | 1.7 | 0.00 | 0.08 | 0.00 | 74 | 1011.9 |
| 20260507054329 | 62 | 360 | 0.9 | 1.7 | 0.00 | 0.08 | 0.00 | 75 | 1011.7 |
| 20260507053328 | 61 | 360 | 1.7 | 3.5 | 0.00 | 0.08 | 0.00 | 75 | 1011.7 |
| 20260507052347 | 60 | 360 | 2.6 | 3.5 | 0.00 | 0.08 | 0.00 | 75 | 1011.5 |
| 20260507051333 | 59 | 360 | 1.7 | 7.0 | 0.00 | 0.08 | 0.00 | 76 | 1011.3 |
| 20260507050349 | 58 | 360 | 3.5 | 7.0 | 0.00 | 0.08 | 0.00 | 77 | 1011.2 |
| 20260507045333 | 58 | 360 | 3.5 | 5.2 | 0.00 | 0.47 | 0.00 | 79 | 1011.1 |
| 20260507044321 | 58 | 360 | 3.5 | 4.3 | 0.00 | 0.47 | 0.00 | 79 | 1011.1 |
| 20260507043333 | 58 | 360 | 2.6 | 3.5 | 0.00 | 0.47 | 0.00 | 79 | 1010.9 |
| 20260507042321 | 58 | 360 | 3.5 | 7.0 | 0.00 | 0.47 | 0.00 | 79 | 1011.1 |
| 20260507041335 | 58 | 360 | 2.6 | 5.2 | 0.00 | 0.47 | 0.00 | 79 | 1011.0 |
| 20260507040322 | 58 | 360 | 3.5 | 4.3 | 0.00 | 0.47 | 0.00 | 79 | 1010.9 |
| 20260507035327 | 58 | 360 | 1.7 | 3.5 | 0.00 | 0.47 | 0.00 | 80 | 1010.9 |
| 20260507034335 | 58 | 360 | 2.6 | 4.3 | 0.00 | 0.47 | 0.00 | 79 | 1010.8 |
| 20260507033332 | 58 | 360 | 1.7 | 3.5 | 0.00 | 0.47 | 0.00 | 80 | 1010.7 |
| 20260507032335 | 58 | 360 | 1.7 | 4.3 | 0.00 | 0.47 | 0.00 | 80 | 1010.8 |
| 20260507031323 | 58 | 360 | 3.5 | 5.2 | 0.00 | 0.47 | 0.00 | 80 | 1010.8 |
| 20260507030336 | 58 | 360 | 4.3 | 7.0 | 0.00 | 0.47 | 0.00 | 79 | 1010.7 |
| 20260507025342 | 58 | 360 | 3.5 | 5.2 | 0.00 | 0.47 | 0.00 | 79 | 1010.7 |
| 20260507024333 | 58 | 360 | 3.5 | 5.2 | 0.00 | 0.47 | 0.00 | 79 | 1010.7 |
| 20260507023335 | 59 | 360 | 4.3 | 7.8 | 0.00 | 0.47 | 0.00 | 78 | 1010.7 |
| 20260507022325 | 59 | 360 | 4.3 | 7.8 | 0.00 | 0.47 | 0.00 | 79 | 1010.6 |
| 20260507021340 | 59 | 360 | 2.6 | 5.2 | 0.00 | 0.47 | 0.00 | 80 | 1010.5 |
| 20260507020327 | 58 | 360 | 3.5 | 7.0 | 0.00 | 0.47 | 0.00 | 81 | 1010.5 |
| 20260507015339 | 59 | 360 | 1.7 | 3.5 | 0.00 | 0.47 | 0.00 | 81 | 1010.5 |
| 20260507014348 | 59 | 360 | 2.6 | 3.5 | 0.00 | 0.47 | 0.00 | 81 | 1010.3 |
| 20260507013327 | 59 | 360 | 2.6 | 5.2 | 0.00 | 0.47 | 0.00 | 82 | 1010.3 |
| 20260507012345 | 59 | 360 | 3.5 | 4.3 | 0.00 | 0.47 | 0.00 | 82 | 1010.3 |